Temperature
21 21 21 21 21 21 20 20 20 20 19 20 19 19 19 18 17 16 15 15 14 14 13 13 12 12 12 11 11 11 11 11 11 10 10 10 10 10 10 9 9 9 9 9
20 21 21 20 20 20 20 20 20 20 19 20 20 19 18 18 17 16 15 14 14 13 13 12 12 12 11 11 11 11 10 10 10 10 10 10 9 9 9 9 9 9 9 9
19 20 20 19 20 20 20 20 20 19 19 19 19 18 18 17 16 16 15 14 13 13 12 12 12 11 11 11 10 10 10 10 10 10 9 9 9 9 9 9 8 8 8 8
19 19 18 19 21 20 20 19 19 19 19 19 18 18 17 17 16 15 14 14 13 12 12 12 11 11 11 10 10 10 10 10 10 9 9 9 9 8 8 8 8 8 8 8
18 18 18 19 19 19 19 18 19 19 18 18 18 17 16 16 15 15 14 13 12 12 11 11 11 11 10 10 10 10 9 9 9 9 9 8 8 8 8 8 8 8 7 7
18 17 17 18 19 19 19 17 18 18 17 17 17 15 15 15 14 14 13 12 12 12 11 11 10 10 10 10 10 9 9 9 8 8 8 8 8 8 8 7 7 7 7 7
17 17 17 18 18 18 16 16 17 17 17 16 16 15 15 14 14 13 12 12 11 11 10 10 10 10 9 9 9 9 9 8 8 8 8 8 8 7 7 7 7 7 7 7
17 16 16 17 17 16 16 16 16 16 16 15 15 15 14 13 13 12 12 11 11 10 10 9 9 9 9 9 8 8 8 8 8 7 7 7 7 7 7 7 7 6 6 6
16 16 16 16 16 16 16 16 15 15 15 14 14 14 13 13 12 11 11 10 10 10 9 9 9 8 8 8 8 8 8 7 7 7 7 7 7 7 7 6 6 6 6 6
16 16 16 16 15 15 15 15 14 14 14 14 13 13 12 12 11 11 10 10 9 9 9 8 8 8 8 8 8 7 7 7 7 7 7 6 6 6 6 6 6 6 6 5
15 15 15 15 15 14 14 14 13 13 13 13 12 12 12 11 11 10 9 9 9 8 8 8 8 7 7 7 7 7 7 6 6 6 6 6 6 6 6 6 6 5 5 5
14 15 14 14 14 13 13 13 13 13 12 12 12 11 11 10 10 9 9 9 8 8 8 7 7 7 7 7 7 6 6 6 6 6 6 6 6 6 5 5 5 5 5 5
14 14 14 13 13 13 12 12 12 12 12 11 11 11 10 10 9 9 8 8 8 8 7 7 7 6 6 6 6 6 6 6 6 5 5 5 5 5 5 5 5 5 4 4
13 13 13 12 12 12 12 12 11 11 11 11 10 10 10 9 9 8 8 8 7 7 7 6 6 6 6 6 6 6 6 5 5 5 5 5 5 4 4 4 4 4 4 4
12 12 12 12 11 11 11 11 11 11 10 10 10 9 9 9 8 8 8 7 7 7 6 6 6 6 6 5 5 5 5 5 5 5 5 4 4 4 4 4 4 4 4 4
11 11 11 11 11 10 10 10 10 10 10 9 9 9 8 8 8 7 7 7 7 6 6 6 6 5 5 5 5 5 5 5 5 4 4 4 4 4 3 3 3 3 3 3
11 10 10 10 10 10 10 10 10 9 9 9 8 8 8 7 7 7 7 6 6 6 6 6 5 5 5 5 5 4 4 4 4 4 4 4 3 3 3 3 3 3 3 3
10 10 10 10 9 9 9 9 9 9 8 8 8 7 7 7 7 6 6 6 6 6 6 5 5 5 5 4 4 4 4 4 4 4 4 3 3 3 3 3 2 2 2 2
10 9 9 9 9 9 9 8 8 8 8 7 7 7 7 6 6 6 6 6 5 5 5 5 5 5 4 4 4 4 3 3 3 3 3 3 3 2 2 2 2 2 2 2
9 9 9 8 8 8 8 8 7 7 7 7 6 6 6 6 6 5 5 5 5 5 5 5 4 4 4 4 3 3 3 3 3 3 3 3 2 2 2 2 2 1 1 1
8 8 8 8 8 8 7 7 7 7 6 6 6 6 5 5 5 5 5 5 5 5 4 4 4 4 3 3 3 3 3 2 2 2 2 2 2 2 1 1 1 1 1 1
8 7 7 7 7 7 7 6 6 6 6 6 5 5 5 5 5 5 5 4 4 4 4 4 3 3 3 3 3 2 2 2 2 2 2 2 1 1 1 1 1 1 1 1
7 7 7 7 6 6 6 6 6 6 5 5 5 5 5 5 5 4 4 4 4 4 4 3 3 3 3 2 2 2 2 2 1 1 1 1 1 1 1 1 1 1 0 0
7 7 6 6 6 6 5 5 5 5 5 5 5 5 4 4 4 4 4 3 3 3 3 3 3 2 2 2 2 2 1 1 1 1 1 1 1 1 0 0 0 0 0 0
6 6 6 6 5 5 5 5 5 5 5 4 4 4 4 4 4 3 3 3 3 3 2 2 2 2 2 2 1 1 1 1 0 0 0 0 0 0 0 0 0 -0 -0 -0
6 6 5 5 5 5 5 4 4 4 4 4 4 4 4 3 3 3 3 2 2 2 2 2 1 1 1 1 1 1 1 0 0 0 -0 -0 -0 -0 -0 -0 -0 -0 -0 -1
5 5 5 5 5 4 4 4 4 4 4 4 4 3 3 3 3 2 2 2 2 1 1 1 1 1 0 0 0 0 0 0 -0 -0 -0 -0 -0 -0 -1 -0 -1 -1 -1 -1
Wind_Speed
7 8 7 6 7 7 7 7 6 5 3 2 2 2 3 4 4 4 3 3 3 3 2 1 2 2 2 2 1 1 1 1 1 1 1 1 1 0 1 1 1 1 1 1
9 8 6 8 7 7 7 6 7 6 4 2 2 2 2 3 3 3 3 2 2 2 1 1 1 2 1 1 1 1 1 1 1 1 1 1 0 1 0 1 1 1 2 1
7 6 7 7 5 5 3 4 4 5 3 2 2 2 2 2 3 2 2 2 1 1 2 1 1 2 2 1 1 1 1 1 1 0 0 1 1 1 1 2 2 2 2 2
6 6 7 1 2 2 2 3 3 3 3 3 2 2 2 4 3 2 2 1 1 1 1 1 1 1 1 1 1 1 1 1 1 1 1 1 1 1 2 2 2 2 2 2
5 6 5 2 2 2 3 3 3 3 2 3 3 2 2 3 3 3 2 2 2 2 1 1 1 1 2 1 1 1 1 1 1 1 1 1 1 2 2 2 2 3 3 2
5 7 5 1 2 3 3 3 4 4 3 2 2 2 2 4 4 4 4 3 3 2 2 2 2 2 1 0 1 1 0 1 1 1 1 1 1 2 2 2 2 3 3 3
7 7 3 3 3 1 2 2 4 4 3 3 2 2 2 4 4 4 4 3 3 3 2 1 1 1 0 1 1 1 2 2 2 2 1 1 1 1 2 2 2 3 3 3
5 6 3 3 2 1 3 4 5 4 4 3 3 3 3 3 3 4 4 4 3 3 2 1 1 1 1 1 1 2 2 1 2 2 2 2 1 1 1 1 2 3 3 3
2 2 2 2 1 3 4 4 4 4 4 3 2 2 2 2 2 3 3 3 3 2 1 1 1 1 1 1 1 1 1 1 1 1 2 1 1 1 2 1 2 3 3 2
4 2 2 2 3 4 4 4 5 5 3 3 2 2 2 2 2 2 3 2 2 2 1 1 1 2 1 1 1 1 1 2 1 1 2 2 1 1 1 1 2 3 3 3
6 3 2 1 3 4 4 4 4 4 3 2 1 1 1 1 1 2 2 2 2 1 1 1 1 1 2 2 1 1 1 1 1 1 1 2 2 2 1 1 1 2 2 2
4 3 3 3 2 3 3 3 3 3 2 2 1 1 2 1 2 2 2 2 1 1 1 1 1 1 1 1 1 1 2 2 1 1 1 1 1 2 3 2 3 2 2 3
3 3 3 2 2 2 3 3 3 3 2 1 1 1 1 1 1 2 1 1 1 1 1 1 1 1 1 1 2 2 2 2 1 1 1 1 1 2 2 3 3 3 3 4
2 2 3 2 2 3 3 3 3 3 2 2 2 1 1 1 1 1 1 1 1 1 1 1 1 1 2 1 2 2 2 2 1 1 1 1 2 2 2 2 3 3 3 4
2 3 3 2 2 3 3 2 2 2 1 1 2 2 1 1 1 1 1 1 1 1 1 1 1 2 2 2 2 2 2 2 1 1 1 1 2 2 2 3 3 3 2 3
2 2 2 2 3 3 3 3 2 1 1 1 1 1 1 1 1 1 1 1 0 1 1 1 1 2 2 2 2 2 2 3 2 1 1 1 2 2 2 3 3 3 2 2
3 3 3 3 4 4 4 3 2 1 1 1 1 1 1 1 1 1 0 0 0 0 1 1 1 2 2 2 2 2 2 2 3 2 1 1 2 2 2 2 3 3 2 2
3 3 3 3 3 3 3 2 1 1 1 1 0 0 0 0 1 1 0 0 1 1 0 1 2 2 2 2 2 2 2 2 2 1 1 1 2 2 2 2 3 3 3 2
2 3 3 3 2 1 1 1 1 0 1 0 0 1 1 1 1 1 1 1 1 2 1 1 2 1 1 2 2 2 2 3 2 2 1 2 2 2 2 2 3 3 3 3
1 1 1 1 1 1 1 1 1 1 0 0 1 1 1 1 1 1 1 2 1 0 1 1 1 1 1 1 2 2 3 3 2 2 2 2 2 2 2 2 3 3 3 3
0 0 0 0 1 1 1 1 1 1 0 1 1 2 2 2 1 1 1 2 1 1 1 1 1 1 1 2 3 2 2 2 2 2 2 2 2 2 3 3 3 3 3 3
0 0 0 0 0 1 0 0 1 1 1 1 2 2 2 2 1 1 1 1 0 1 1 1 1 1 2 3 2 2 2 2 2 2 2 2 2 3 3 3 3 3 3 3
1 1 0 0 0 1 1 0 0 1 1 1 2 1 1 1 1 1 1 1 1 1 1 1 1 2 3 2 2 2 2 2 2 2 2 2 2 3 3 3 3 3 3 3
0 0 0 1 1 1 1 1 1 1 1 1 1 1 1 1 1 1 1 1 1 1 1 1 2 3 3 1 1 2 2 2 2 2 2 2 2 3 3 3 3 3 3 4
0 0 0 0 0 1 1 1 1 1 1 1 1 1 1 1 1 1 1 1 0 1 1 2 3 3 2 1 1 2 2 2 2 2 2 2 3 3 3 3 3 3 3 3
1 0 0 0 0 0 1 1 1 1 1 1 1 1 1 2 2 1 1 1 1 1 1 1 2 2 2 1 2 2 2 2 3 3 3 3 3 3 3 3 4 4 3 3
1 1 1 0 0 0 0 0 1 1 1 1 1 1 1 1 1 1 2 1 2 2 1 1 1 1 1 2 2 2 1 2 2 2 3 3 3 3 3 4 3 3 3 3
Wind_Direction
282 287 284 277 276 277 278 284 285 290 290 324 47 59 93 112 114 119 122 126 136 138 133 135 122 103 102 107 106 94 80 85 128 151 132 119 114 221 187 201 242 244 238 222
273 264 267 274 272 268 268 277 280 282 297 16 53 46 61 95 103 115 128 136 149 148 138 141 132 130 131 154 174 151 113 84 80 79 101 135 179 252 220 261 256 248 241 233
272 265 268 262 269 260 263 284 284 286 317 11 29 20 27 64 77 92 102 109 117 168 165 179 184 158 162 160 133 134 121 99 78 59 255 203 222 241 243 243 253 269 259 233
276 270 260 244 13 330 288 304 318 321 360 2 12 13 54 54 47 53 67 68 104 116 129 146 127 108 124 110 109 143 115 88 53 330 293 266 249 261 271 269 252 257 262 258
271 272 261 246 332 319 277 281 335 331 339 352 2 358 65 44 43 37 67 66 79 93 85 90 99 86 102 112 140 78 64 29 344 322 307 292 275 284 285 278 265 259 252 249
269 270 266 341 15 345 297 258 22 356 352 354 340 295 7 43 44 48 61 59 52 73 84 80 75 68 92 80 84 73 11 332 333 333 307 284 274 277 293 290 276 273 266 260
259 265 265 21 14 343 268 337 15 355 353 347 336 347 40 40 48 58 63 62 64 72 75 70 69 69 77 46 19 19 28 18 1 358 350 329 327 314 309 305 298 283 274 272
259 261 260 52 31 27 8 15 7 6 14 9 8 18 36 39 51 61 62 63 64 77 75 65 59 58 48 34 19 29 31 6 353 353 339 343 344 323 313 300 288 288 287 283
260 271 27 54 360 7 10 1 4 1 11 2 355 25 35 44 60 69 68 60 65 73 72 67 61 50 51 47 47 25 358 341 346 342 338 341 338 321 313 313 307 300 296 293
276 258 289 322 351 354 360 3 7 6 6 5 4 19 32 51 56 71 76 63 63 59 54 37 47 44 40 44 51 27 338 334 346 348 340 336 334 324 330 333 320 309 304 299
275 283 293 307 334 340 0 360 356 1 4 -0 14 13 18 36 56 72 67 67 66 49 16 22 42 35 37 29 12 334 319 326 334 334 332 336 355 350 333 296 278 294 300 304
271 308 300 296 330 340 336 334 338 334 337 353 6 27 39 44 55 71 84 81 76 63 34 27 30 17 26 24 354 330 317 318 322 326 328 331 338 343 346 308 310 305 302 306
297 328 326 326 332 325 316 320 325 320 320 336 31 70 65 50 68 72 80 92 109 110 60 22 353 344 2 7 343 318 303 308 319 320 323 322 313 303 306 322 321 316 308 313
356 337 311 309 313 314 313 319 320 323 334 352 16 43 66 71 91 93 88 61 65 87 63 30 351 342 357 350 333 321 314 309 318 303 307 304 296 294 292 297 304 298 286 286
278 289 293 314 324 329 323 309 300 303 331 13 32 35 42 47 80 96 83 62 52 66 27 13 356 353 5 353 340 326 320 318 310 305 307 307 309 309 310 302 298 302 309 305
256 269 290 300 302 304 302 292 280 292 351 20 35 34 19 46 55 68 93 97 36 329 340 344 2 6 4 350 335 321 308 307 311 304 303 314 318 316 311 309 309 308 308 313
230 239 258 273 281 286 289 295 303 312 339 337 38 44 31 42 30 6 38 79 324 274 326 358 16 4 354 346 334 320 312 296 300 309 298 300 300 299 301 306 308 311 308 303
247 258 267 269 273 275 283 296 319 341 337 338 80 120 258 272 275 287 307 336 331 312 6 53 25 355 353 350 338 327 320 309 296 282 291 309 310 306 305 304 306 312 312 303
267 263 270 276 284 280 287 315 341 344 342 91 233 263 268 278 287 293 307 295 285 292 331 54 2 342 347 348 346 327 314 306 306 307 305 299 296 294 297 300 309 315 316 314
359 353 343 332 339 344 345 348 357 339 315 249 257 266 274 275 278 280 276 278 272 278 47 40 349 315 336 347 339 312 299 300 307 312 313 303 297 300 305 308 309 308 307 307
318 327 315 325 345 349 353 331 295 267 277 254 262 266 267 271 277 282 281 287 308 56 58 7 322 326 358 339 323 308 303 308 316 310 305 303 305 311 310 306 304 306 310 310
197 258 276 341 350 333 0 343 303 278 265 270 268 267 267 270 279 289 289 268 324 68 47 305 303 343 342 332 309 309 306 314 316 307 304 308 311 309 307 307 305 306 308 304
194 210 222 237 310 333 350 332 308 301 271 274 288 291 293 301 310 304 304 337 43 32 345 298 304 314 316 312 300 299 295 299 304 302 305 312 310 305 303 306 309 308 307 306
229 175 79 35 20 8 334 334 336 311 305 309 308 324 335 352 347 345 359 19 18 355 314 285 281 291 298 291 289 292 296 306 317 323 319 312 308 309 315 318 314 311 304 301
183 130 88 82 297 298 311 320 318 314 316 311 315 329 350 33 3 357 12 23 9 2 322 303 285 285 286 283 286 299 310 308 312 321 311 304 304 309 315 313 311 310 308 305
172 160 183 242 264 287 282 279 284 305 321 327 336 3 23 37 40 30 19 2 352 322 309 298 302 293 298 299 303 309 313 311 309 307 301 298 305 312 313 312 310 310 308 307
174 179 171 195 278 278 298 306 293 305 322 332 347 5 19 33 40 27 11 356 339 321 310 307 309 304 298 300 305 310 312 313 304 299 304 304 305 304 304 305 304 301 304 309
Height
1489 1487 1486 1488 1489 1488 1489 1489 1494 1492 1491 1490 1490 1491 1492 1494 1495 1497 1499 1501 1502 1502 1503 1504 1504 1504 1504 1504 1504 1505 1505 1505 1506 1506 1507 1507 1507 1507 1507 1507 1507 1507 1507 1507
1490 1485 1486 1488 1486 1486 1487 1487 1488 1488 1490 1487 1488 1490 1492 1493 1494 1496 1498 1500 1500 1501 1502 1502 1502 1502 1502 1502 1502 1503 1503 1503 1504 1504 1504 1505 1504 1505 1504 1504 1504 1504 1504 1504
1492 1486 1487 1491 1485 1484 1486 1485 1487 1490 1490 1487 1489 1490 1492 1493 1494 1496 1497 1498 1499 1500 1500 1501 1501 1501 1501 1501 1501 1501 1502 1502 1502 1502 1502 1502 1502 1502 1502 1501 1502 1502 1502 1502
1491 1491 1499 1491 1480 1481 1483 1485 1485 1486 1487 1488 1489 1491 1492 1493 1494 1495 1496 1497 1497 1498 1498 1499 1499 1499 1500 1500 1500 1500 1500 1500 1500 1500 1500 1500 1500 1500 1499 1499 1499 1499 1499 1499
1493 1495 1492 1487 1482 1482 1485 1487 1485 1486 1487 1488 1489 1490 1491 1492 1493 1494 1495 1495 1496 1496 1496 1497 1497 1498 1498 1498 1498 1498 1498 1498 1498 1498 1497 1497 1497 1497 1496 1496 1496 1495 1495 1495
1493 1497 1497 1490 1484 1482 1485 1489 1487 1487 1487 1488 1489 1492 1493 1493 1493 1493 1493 1494 1494 1495 1495 1495 1495 1496 1496 1496 1496 1496 1496 1496 1496 1496 1495 1495 1494 1494 1493 1493 1493 1492 1492 1492
1495 1495 1490 1487 1484 1484 1494 1494 1488 1488 1488 1489 1490 1492 1493 1492 1492 1492 1492 1492 1493 1493 1493 1494 1494 1494 1494 1494 1494 1495 1495 1495 1494 1494 1493 1493 1492 1491 1491 1490 1489 1489 1489 1488
1492 1495 1496 1487 1486 1489 1491 1489 1488 1488 1489 1489 1490 1491 1491 1491 1491 1491 1491 1491 1491 1491 1492 1492 1493 1493 1493 1492 1493 1493 1493 1493 1492 1492 1491 1490 1489 1488 1488 1487 1486 1486 1485 1485
1490 1493 1488 1487 1488 1489 1489 1489 1489 1489 1489 1489 1490 1490 1490 1490 1490 1490 1490 1490 1490 1491 1491 1491 1491 1491 1491 1491 1491 1491 1491 1491 1490 1490 1489 1488 1487 1486 1485 1484 1483 1483 1482 1481
1486 1486 1487 1487 1488 1488 1489 1489 1489 1489 1489 1489 1489 1489 1489 1490 1490 1489 1489 1489 1489 1489 1489 1490 1490 1490 1490 1489 1489 1489 1489 1488 1488 1487 1486 1485 1484 1483 1482 1481 1481 1480 1479 1478
1486 1486 1486 1487 1488 1488 1488 1488 1488 1488 1488 1488 1488 1488 1488 1488 1488 1488 1488 1488 1488 1488 1488 1488 1488 1488 1488 1488 1487 1486 1486 1486 1485 1485 1484 1483 1482 1481 1480 1479 1479 1477 1476 1475
1487 1486 1486 1486 1487 1487 1487 1487 1487 1487 1487 1487 1487 1486 1486 1487 1487 1487 1487 1487 1487 1487 1487 1487 1487 1486 1486 1485 1485 1484 1484 1483 1483 1482 1481 1480 1479 1478 1477 1477 1476 1475 1474 1473
1484 1484 1484 1485 1485 1486 1486 1486 1486 1486 1485 1485 1485 1485 1485 1485 1485 1485 1486 1486 1486 1486 1485 1485 1485 1484 1484 1483 1482 1482 1481 1481 1480 1479 1478 1477 1476 1475 1474 1473 1472 1471 1470 1469
1482 1483 1483 1483 1484 1484 1484 1484 1484 1484 1484 1484 1483 1483 1483 1484 1484 1484 1484 1484 1484 1484 1484 1483 1483 1483 1482 1481 1480 1480 1479 1479 1478 1477 1476 1475 1474 1473 1472 1470 1469 1468 1467 1466
1481 1482 1482 1482 1482 1482 1482 1482 1482 1482 1482 1482 1482 1482 1482 1482 1482 1482 1483 1483 1483 1483 1482 1482 1481 1481 1480 1479 1478 1478 1477 1476 1476 1475 1474 1473 1472 1471 1469 1468 1466 1465 1464 1463
1479 1479 1480 1480 1480 1480 1480 1480 1480 1480 1480 1480 1480 1480 1480 1480 1481 1481 1481 1481 1481 1481 1480 1480 1479 1479 1478 1477 1476 1475 1474 1474 1473 1472 1471 1470 1469 1468 1467 1465 1464 1463 1461 1460
1476 1476 1477 1477 1478 1478 1478 1478 1478 1478 1478 1478 1478 1478 1478 1478 1479 1479 1479 1479 1479 1479 1478 1478 1477 1476 1476 1475 1474 1473 1472 1471 1471 1470 1468 1468 1467 1466 1464 1463 1461 1460 1459 1458
1474 1474 1475 1475 1475 1476 1476 1476 1476 1476 1476 1476 1476 1476 1476 1476 1476 1477 1477 1477 1476 1476 1476 1475 1475 1474 1473 1472 1472 1471 1470 1469 1468 1467 1466 1465 1464 1463 1462 1460 1459 1457 1456 1455
1471 1471 1472 1473 1473 1473 1473 1473 1474 1474 1474 1474 1474 1474 1474 1474 1474 1474 1474 1474 1473 1473 1473 1473 1472 1472 1471 1470 1469 1468 1467 1466 1465 1464 1463 1462 1461 1460 1459 1458 1456 1454 1453 1452
1468 1469 1469 1470 1470 1471 1471 1471 1471 1471 1471 1471 1471 1471 1471 1471 1472 1472 1471 1471 1471 1471 1470 1470 1469 1469 1468 1467 1467 1466 1465 1464 1463 1462 1460 1459 1458 1457 1456 1454 1453 1451 1450 1449
1466 1467 1467 1467 1468 1469 1469 1469 1469 1469 1469 1469 1469 1469 1469 1469 1469 1469 1468 1468 1468 1468 1467 1467 1466 1465 1465 1464 1464 1463 1462 1461 1460 1459 1457 1456 1455 1454 1453 1451 1450 1448 1447 1445
1464 1465 1465 1466 1466 1466 1467 1467 1467 1467 1467 1467 1467 1467 1467 1466 1466 1466 1466 1466 1465 1465 1464 1464 1463 1462 1462 1461 1460 1460 1459 1458 1457 1455 1454 1453 1452 1451 1449 1448 1447 1445 1444 1442
1463 1463 1464 1464 1464 1464 1465 1464 1464 1464 1464 1465 1464 1464 1464 1464 1464 1464 1463 1463 1462 1462 1461 1460 1460 1459 1459 1458 1457 1456 1455 1454 1453 1452 1451 1450 1449 1448 1446 1445 1444 1442 1441 1439
1462 1462 1462 1462 1463 1462 1462 1462 1462 1462 1463 1463 1463 1462 1462 1462 1461 1461 1461 1460 1459 1459 1458 1457 1457 1456 1456 1455 1454 1453 1452 1451 1450 1449 1448 1447 1446 1444 1443 1442 1440 1439 1437 1435
1460 1460 1460 1460 1460 1460 1460 1460 1460 1461 1461 1460 1460 1460 1460 1459 1459 1458 1458 1457 1456 1456 1455 1454 1454 1453 1452 1451 1450 1450 1449 1448 1447 1446 1445 1444 1442 1441 1440 1439 1437 1435 1434 1432
1458 1458 1458 1459 1459 1459 1459 1459 1459 1458 1458 1458 1458 1457 1457 1457 1456 1456 1455 1454 1453 1452 1452 1451 1450 1450 1449 1448 1447 1446 1445 1445 1444 1443 1442 1441 1439 1438 1437 1435 1434 1432 1430 1429
1456 1456 1457 1457 1457 1457 1457 1456 1456 1456 1456 1456 1455 1455 1454 1454 1453 1453 1452 1451 1450 1449 1449 1448 1447 1447 1446 1445 1444 1443 1442 1442 1441 1440 1439 1438 1436 1435 1433 1432 1431 1429 1427 1425